TimeAKST,TemperatureF,Dew PointF,Humidity,Sea Level PressureIn,VisibilityMPH,Wind Direction,Wind SpeedMPH,Gust SpeedMPH,PrecipitationIn,Events,Conditions,WindDirDegrees,DateUTC
12:12 AM,33.8,32.0,93,28.64,6.0,SSE,5.8,-,0.02,Rain,Light Rain,150,2012-02-02 09:12:00
12:53 AM,34.0,32.0,92,28.66,10.0,East,10.4,-,0.09,,Overcast,100,2012-02-02 09:53:00
1:53 AM,32.0,30.9,96,28.69,10.0,ENE,6.9,-,0.00,,Partly Cloudy,70,2012-02-02 10:53:00
2:53 AM,32.0,30.9,96,28.72,10.0,ESE,9.2,-,N/A,,Scattered Clouds,110,2012-02-02 11:53:00
3:53 AM,33.1,30.0,89,28.76,10.0,ESE,6.9,-,N/A,,Mostly Cloudy,110,2012-02-02 12:53:00
4:53 AM,32.0,30.0,92,28.80,10.0,East,4.6,-,N/A,,Clear,100,2012-02-02 13:53:00
5:53 AM,30.9,28.9,92,28.83,10.0,ENE,5.8,-,N/A,,Clear,70,2012-02-02 14:53:00
6:53 AM,32.0,28.9,88,28.87,10.0,East,11.5,-,N/A,,Clear,100,2012-02-02 15:53:00
7:53 AM,32.0,28.9,88,28.91,10.0,East,9.2,-,N/A,,Clear,90,2012-02-02 16:53:00
8:53 AM,32.0,28.0,85,28.94,10.0,ENE,10.4,-,N/A,,Clear,70,2012-02-02 17:53:00
9:53 AM,33.1,28.0,82,28.98,10.0,East,12.7,-,N/A,,Scattered Clouds,100,2012-02-02 18:53:00
10:53 AM,33.1,28.0,82,29.01,10.0,East,6.9,-,N/A,,Overcast,90,2012-02-02 19:53:00
11:22 AM,33.8,28.4,81,29.01,2.0,East,9.2,-,0.00,Snow,Light Snow,90,2012-02-02 20:22:00
11:39 AM,33.8,30.2,87,29.02,9.0,East,9.2,-,0.00,,Scattered Clouds,80,2012-02-02 20:39:00
11:53 AM,33.1,30.0,89,29.04,10.0,East,6.9,-,0.00,,Clear,90,2012-02-02 20:53:00
12:53 PM,34.0,30.0,85,29.08,10.0,ESE,8.1,-,N/A,,Mostly Cloudy,110,2012-02-02 21:53:00
1:53 PM,34.0,30.9,89,29.10,10.0,SE,8.1,-,N/A,,Mostly Cloudy,140,2012-02-02 22:53:00
2:22 PM,30.2,28.4,93,29.12,10.0,SW,9.2,-,N/A,,Overcast,230,2012-02-02 23:22:00
2:53 PM,30.0,28.0,92,29.14,10.0,SW,8.1,-,N/A,,Overcast,230,2012-02-02 23:53:00
3:07 PM,30.2,28.4,93,29.14,10.0,SW,6.9,-,N/A,,Overcast,230,2012-02-03 00:07:00
3:43 PM,28.4,26.6,93,29.15,7.0,West,8.1,-,N/A,,Mostly Cloudy,260,2012-02-03 00:43:00
3:53 PM,28.9,27.0,92,29.17,5.0,West,4.6,-,N/A,,Mostly Cloudy,270,2012-02-03 00:53:00
4:06 PM,28.4,26.6,93,29.17,4.0,West,5.8,-,N/A,,Mostly Cloudy,270,2012-02-03 01:06:00
4:10 PM,28.4,26.6,93,29.17,2.5,West,3.5,-,N/A,,Mostly Cloudy,280,2012-02-03 01:10:00
4:23 PM,28.4,26.6,93,29.17,2.5,West,3.5,-,N/A,,Overcast,270,2012-02-03 01:23:00
4:37 PM,28.4,26.6,93,29.17,5.0,West,4.6,-,N/A,,Overcast,280,2012-02-03 01:37:00
4:53 PM,28.9,27.0,92,29.19,10.0,Calm,Calm,-,N/A,,Overcast,0,2012-02-03 01:53:00
5:53 PM,28.0,26.1,92,29.21,10.0,Calm,Calm,-,N/A,,Overcast,0,2012-02-03 02:53:00
6:53 PM,28.0,26.1,92,29.22,10.0,Calm,Calm,-,N/A,,Overcast,0,2012-02-03 03:53:00
7:00 PM,26.6,26.6,100,29.22,10.0,SSW,3.5,-,N/A,,Overcast,210,2012-02-03 04:00:00
7:53 PM,27.0,25.0,92,29.24,10.0,SW,11.5,-,N/A,,Overcast,220,2012-02-03 04:53:00
8:41 PM,26.6,23.0,86,29.24,10.0,SW,11.5,-,N/A,,Overcast,220,2012-02-03 05:41:00
8:53 PM,26.1,23.0,88,29.25,10.0,SW,11.5,-,N/A,,Overcast,220,2012-02-03 05:53:00
9:09 PM,24.8,23.0,93,29.24,10.0,SW,13.8,-,N/A,,Overcast,220,2012-02-03 06:09:00
9:46 PM,24.8,21.2,86,29.24,10.0,SW,12.7,-,N/A,,Overcast,220,2012-02-03 06:46:00
9:53 PM,24.1,21.9,91,29.25,10.0,SW,9.2,-,N/A,,Overcast,220,2012-02-03 06:53:00
10:03 PM,24.8,21.2,86,29.24,10.0,SW,9.2,-,N/A,,Overcast,230,2012-02-03 07:03:00
10:53 PM,24.1,21.0,88,29.25,10.0,SW,12.7,-,N/A,,Overcast,220,2012-02-03 07:53:00
11:10 PM,24.8,21.2,86,29.24,10.0,SW,11.5,-,N/A,,Overcast,220,2012-02-03 08:10:00
11:53 PM,23.0,19.9,88,29.24,10.0,SW,12.7,-,N/A,,Overcast,220,2012-02-03 08:53:00